Home   Weather   Citrus Heights   Past weeks

Flag for USA Past Weather in Citrus Heights, California, USA — Yesterday and Last 2 Weeks

Now
54 °F

Passing clouds.


Feels Like: 53 °F
Forecast: 51 / 71 °F
Wind: 5 mph from Southeast

Location: Mather Field

Current Time: Apr 27, 2017 at 4:08:43 am

Latest Report: Apr 27, 2017 at 2:53 am


Visibility: 10 mi

Pressure: 29.99 "Hg

Humidity: 100%

Dew Point: 54 °F

Location of Citrus HeightsLocation

Past Weather in Citrus Heights — Graph

°F

Citrus Heights Temperature Yesterday

Maximum temperature yesterday: 64 °F (at 2:55 pm)
Minimum temperature yesterday: 54 °F (at 2:45 am)
Average temperature yesterday: 60 °F

High & Low Weather Summary for the Past Weeks

 TemperatureHumidityPressure
High77 °F (Apr 21, 4:45 pm)100% (Apr 12, 3:45 am)30.31 "Hg (Apr 12, 3:45 am)
Low36 °F (Apr 15, 5:50 am)26% (Apr 21, 4:45 pm)29.87 "Hg (Apr 12, 7:45 pm)
Average58 °F75%30.06 "Hg
* Reported Apr 12 2:45 am — Apr 27 2:53 am, Citrus Heights, Weather by CustomWeather, © 2017

Note: Actual official high and low records may vary slightly from our data, if they occured in-between our weather recording intervals... More about our weather records

Advertising

Citrus Heights Weather History for the Previous 24 Hours

Scroll right to see more
 ConditionsComfort  
Time TempWeatherWind HumidityBarometerVisibility
2:53 am
Thu, Apr 27
54 °FPassing clouds.5 mph100%29.99 "Hg10 mi
11:30 pm
Wed, Apr 26
57 °FOvercast.6 mph88%30.00 "Hg10 mi
10:45 pm57 °FOvercast.9 mph94%30.00 "Hg10 mi
9:45 pm59 °FOvercast.8 mph88%30.00 "Hg10 mi
8:45 pm61 °FMostly cloudy.7 mph83%29.99 "Hg10 mi
7:45 pm61 °FPartly sunny.8 mph88%29.97 "Hg10 mi
6:45 pm64 °FPartly sunny.12 mph78%29.97 "Hg10 mi
5:45 pm64 °FPartly sunny.12 mph78%29.97 "Hg10 mi
4:45 pm64 °FMostly cloudy.12 mph78%29.98 "Hg10 mi
3:50 pm64 °FMostly cloudy.13 mph78%29.98 "Hg10 mi
2:55 pm64 °FOvercast.9 mph78%30.02 "Hg10 mi
1:45 pm63 °FOvercast.10 mph83%30.02 "Hg10 mi
12:45 pm61 °FOvercast.13 mph88%30.02 "Hg10 mi
11:50 am59 °FMostly cloudy.13 mph100%30.04 "Hg10 mi
10:50 am57 °FOvercast.10 mph100%30.04 "Hg10 mi
9:45 am57 °FMore clouds than sun.10 mph100%30.04 "Hg2 mi
8:59 am57 °FLow clouds.8 mph94%30.04 "Hg2 mi
7:45 am57 °FOvercast.9 mph94%30.04 "Hg10 mi
6:45 am57 °FOvercast.8 mph94%30.04 "Hg10 mi
5:45 am55 °FOvercast.7 mph100%30.02 "Hg10 mi
Weather by CustomWeather, © 2017

See weather overviewHow to use our weather pages